Flag for U.S.A. Weather past 2 weeks in Wichita, Kansas, U.S.A.

65 °F

Thunderstorms. Overcast.

Feels Like: 65 °F
Forecast: 56 / 73 °F
Wind: 22 mph from Northeast

Location: Wichita Mid-Continent Airport

Current Time: Oct 9, 2015 at 12:49:27 AM

Latest Report: Oct 8, 2015 at 11:53 PM

Visibility: 10 mi

Pressure: 30.13 "Hg

Humidity: 78%

Dew point: 58 °F

Location of WichitaLocation

Historic Weather in Wichita — Graph


Wichita temperature yesterday

Maximum temperature yesterday: 87 °F (at 2:53 PM)
Minimum temperature yesterday: 57 °F (at 7:53 AM)
Average temperature yesterday: 71 °F

Past Weeks' High & Low Weather Summary

High87 °F (Oct 8, 2:53 PM)93% (Sep 26, 1:53 AM)30.25 "Hg (Sep 26, 1:53 AM)
Low50 °F (Oct 3, 4:53 AM)27% (Oct 2, 4:53 PM)29.84 "Hg (Sep 28, 5:53 PM)
Average67 °F62%30.07 "Hg
* Reported Sep 23 10:53 PM — Oct 8 10:53 PM, Wichita, Weather by CustomWeather, © 2015

Note: Actual official high and low records may vary slightly from our data, if they occured in-between our weather recording intervals... More about our weather records


Wichita weather history for previous 24 hours

Time TempWeatherWind HumidityBarometerVisibility
10:53 PM
Thu, Oct 8
68 °FPassing clouds.9 mph82%30.05 "Hg10 mi
9:53 PM69 °FPassing clouds.12 mph79%30.04 "Hg10 mi
9:02 PM70 °FThunderstorms. Passing clouds.20 mph81%30.07 "Hg6 mi
8:53 PM75 °FLight rain. Passing clouds.15 mph55%30.05 "Hg10 mi
7:53 PM74 °FPassing clouds.8 mph57%30.01 "Hg10 mi
6:53 PM77 °FBroken clouds.8 mph52%29.99 "Hg10 mi
5:53 PM84 °FPartly sunny.7 mph40%29.98 "Hg10 mi
4:53 PM87 °FScattered clouds.8 mph35%29.97 "Hg10 mi
3:53 PM87 °FScattered clouds.9 mph35%29.97 "Hg10 mi
2:53 PM87 °FBroken clouds.14 mph35%29.99 "Hg10 mi
1:53 PM86 °FBroken clouds.21 mph39%30.03 "Hg10 mi
12:53 PM84 °FBroken clouds.14 mph41%30.05 "Hg10 mi
11:53 AM81 °FPartly sunny.13 mph45%30.07 "Hg10 mi
10:53 AM75 °FPartly sunny.8 mph60%30.09 "Hg10 mi
9:53 AM65 °FPartly sunny.5 mph85%30.09 "Hg10 mi
8:53 AM61 °FBroken clouds.3 mph87%30.09 "Hg10 mi
7:53 AM57 °FPartly cloudy.No wind90%30.08 "Hg10 mi
6:53 AM58 °FPartly cloudy.No wind90%30.07 "Hg10 mi
5:53 AM58 °FPartly cloudy.5 mph87%30.05 "Hg10 mi
4:53 AM58 °FPartly cloudy.6 mph90%30.04 "Hg10 mi
3:53 AM58 °FPartly cloudy.3 mph90%30.05 "Hg10 mi
2:53 AM60 °FPartly cloudy.No wind83%30.07 "Hg10 mi
1:53 AM58 °FPassing clouds.No wind90%30.07 "Hg10 mi
12:53 AM60 °FPassing clouds.No wind90%30.06 "Hg10 mi
Weather by CustomWeather, © 2015

See weather overviewHow to use our weather pages